DW6083 Weather Reports


Display with metric or nautical units.
time (UTC)temp
F
wind
direction
speed
MPH
gust
MPH
rain 1hr
in
rain 24hr
in
rain mn
in
humidity
%
barometer
mb
20260903074623 0 125 0.0 0.0 0.00 0.00 0.00 1017.0
20260903073057 0 125 0.0 0.0 0.00 0.00 0.00 1016.9
20260903071546 0 125 0.0 0.0 0.00 0.00 0.00 1016.7
20260903070041 0 125 0.0 0.0 0.00 0.00 0.00 1016.5
20260903064536 0 125 0.0 0.0 0.00 0.00 0.00 1016.6
20260903063032 0 125 0.0 0.0 0.00 0.00 0.00 1016.4
20260903061542 0 125 0.0 0.0 0.00 0.00 0.00 1016.7
20260903060023 0 125 0.0 0.0 0.00 0.00 0.00 1017.0
20260903054520 0 125 0.0 0.0 0.00 0.00 0.00 1017.0
20260903053015 0 125 0.0 0.0 0.00 0.00 0.00 1017.0
20260903051510 0 125 0.0 0.0 0.00 0.00 0.00 1017.1
20260903050006 0 125 0.0 0.0 0.00 0.00 0.00 1017.1
20260903044501 0 125 0.0 0.0 0.00 0.00 0.00 1017.1
20260903043056 0 125 0.0 0.0 0.00 0.00 0.00 1017.0
20260903041608 0 125 0.0 0.0 0.00 0.00 0.00 1017.1
20260903040050 0 125 0.0 0.0 0.00 0.00 0.00 1017.2
20260903034548 0 125 0.0 0.0 0.00 0.00 0.00 1017.3
20260903033048 0 125 0.0 0.0 0.00 0.00 0.00 1017.3
20260903031547 0 125 0.0 0.0 0.00 0.00 0.00 1017.3
20260903030047 0 125 0.0 0.0 0.00 0.00 0.00 1017.5
20260903024546 0 125 0.0 0.0 0.00 0.00 0.00 1017.3
20260903023045 0 125 0.0 0.0 0.00 0.00 0.00 1017.4
20260903021545 0 125 0.0 0.0 0.00 0.00 0.00 1017.4
20260903020051 0 125 0.0 0.0 0.00 0.00 0.00 1017.4
20260903014605 0 125 0.0 0.0 0.00 0.00 0.00 1017.3
20260903013056 0 125 0.0 0.0 0.00 0.00 0.00 1017.1
20260903011553 0 125 0.0 0.0 0.00 0.00 0.00 1016.9
20260903010039 0 125 0.0 0.0 0.00 0.00 0.00 1016.8
20260903004527 0 125 0.0 0.0 0.00 0.00 0.00 1016.7
20260903003023 0 125 0.0 0.0 0.00 0.00 0.00 1016.5
20260903001519 0 125 0.0 0.0 0.00 0.00 0.00 1016.3
20260903000014 0 125 0.0 0.0 0.00 0.00 0.00 1016.2
20260902234509 0 125 0.0 0.0 0.00 0.00 0.00 1016.1
20260902233005 0 125 0.0 0.0 0.00 0.00 0.00 1016.1
20260902231603 0 125 0.0 0.0 0.00 0.00 0.00 1016.0
20260902230100 0 125 0.0 0.0 0.00 0.00 0.00 1016.1
20260902224557 0 125 0.0 2.0 0.00 0.00 0.00 1016.1
20260902223047 0 125 0.0 2.0 0.00 0.00 0.00 1016.2
20260902221543 0 125 1.0 3.0 0.00 0.00 0.00 1016.2
20260902220043 0 125 1.0 2.0 0.00 0.00 0.00 1016.3
20260902214541 0 125 0.0 3.0 0.00 0.00 0.00 1016.4
20260902213030 0 125 2.0 3.0 0.00 0.00 0.00 1016.3
20260902211529 0 125 1.0 4.0 0.00 0.00 0.00 1016.4
20260902210022 0 125 3.0 7.0 0.00 0.00 0.00 1016.4
20260902204516 0 125 2.0 7.0 0.00 0.00 0.00 1016.6
20260902203014 0 125 4.0 9.0 0.00 0.00 0.00 1016.7
20260902201508 0 125 1.0 3.0 0.00 0.00 0.00 1016.8
20260902200006 0 125 4.0 9.0 0.00 0.00 0.00 1017.0
20260902194602 0 124 2.0 8.0 0.00 0.00 0.00 1017.1
20260902193055 0 123 4.0 10.0 0.00 0.00 0.00 1017.2
20260902191551 0 117 3.0 7.0 0.00 0.00 0.00 1017.4
20260902190048 0 117 2.0 6.0 0.00 0.00 0.00 1017.5
20260902184543 0 117 2.0 7.0 0.00 0.00 0.00 1017.6
20260902183038 0 117 2.0 6.0 0.00 0.00 0.00 1017.8
20260902181638 0 117 3.0 7.0 0.00 0.00 0.00 1017.9
20260902180025 0 117 3.0 7.0 0.00 0.00 0.00 1018.0
20260902174525 0 117 1.0 3.0 0.00 0.00 0.00 1018.1
20260902173025 0 117 0.0 6.0 0.00 0.00 0.00 1018.4
20260902171515 0 118 1.0 3.0 0.00 0.00 0.00 1018.6
20260902170015 0 117 1.0 6.0 0.00 0.00 0.00 1018.8
20260902164506 0 117 1.0 4.0 0.00 0.00 0.00 1018.9
20260902163002 0 117 2.0 4.0 0.00 0.00 0.00 1018.9
20260902161559 0 118 2.0 4.0 0.00 0.00 0.00 1019.0
20260902160106 0 117 1.0 4.0 0.00 0.00 0.00 1019.0
20260902154548 0 117 1.0 4.0 0.00 0.00 0.00 1019.2
20260902153046 0 118 0.0 3.0 0.00 0.00 0.00 1019.3
20260902151547 0 117 1.0 6.0 0.00 0.00 0.00 1019.2
20260902150028 0 118 0.0 3.0 0.00 0.00 0.00 1019.3
20260902144521 0 118 1.0 3.0 0.00 0.00 0.00 1019.2
20260902143016 0 118 0.0 1.0 0.00 0.00 0.00 1019.0
20260902141513 0 118 0.0 2.0 0.00 0.00 0.00 1019.0
20260902140012 0 118 0.0 3.0 0.00 0.00 0.00 1019.0
20260902134503 0 118 0.0 0.0 0.00 0.00 0.00 1019.1
20260902133107 0 118 0.0 0.0 0.00 0.00 0.00 1019.1
20260902131603 0 118 0.0 0.0 0.00 0.00 0.00 1019.1
20260902130050 0 118 0.0 0.0 0.00 0.00 0.00 1019.2
20260902124546 0 97 0.0 0.0 0.00 0.00 0.00 1019.3
20260902123042 0 97 0.0 0.0 0.00 0.00 0.00 1019.3
20260902121542 0 97 0.0 0.0 0.00 0.00 0.00 1019.2
20260902120034 0 97 0.0 0.0 0.00 0.00 0.00 1019.2
20260902114537 0 97 0.0 0.0 0.00 0.00 0.00 1019.2
20260902113023 0 97 0.0 0.0 0.00 0.00 0.00 1019.1
20260902111519 0 97 0.0 0.0 0.00 0.00 0.00 1018.9
20260902110027 0 97 0.0 0.0 0.00 0.00 0.00 1018.9
20260902104531 0 97 0.0 0.0 0.00 0.00 0.00 1018.8
20260902103010 0 97 0.0 0.0 0.00 0.00 0.00 1018.6
20260902101501 0 97 0.0 0.0 0.00 0.00 0.00 1018.4
20260902100123 0 97 0.0 0.0 0.00 0.00 0.00 1018.4
20260902094552 0 97 0.0 0.0 0.00 0.00 0.00 1018.4
20260902093053 0 97 0.0 0.0 0.00 0.00 0.00 1018.2
20260902091543 0 97 0.0 0.0 0.00 0.00 0.00 1018.1
20260902090039 0 97 0.0 0.0 0.00 0.00 0.00 1018.1
20260902084534 0 97 0.0 0.0 0.00 0.00 0.00 1017.9
20260902083031 0 97 0.0 0.0 0.00 0.00 0.00 1017.9
20260902081525 0 97 0.0 0.0 0.00 0.00 0.00 1017.8
20260902080023 0 97 0.0 0.0 0.00 0.00 0.00 1017.7